Weather reports worldwide

Advertisment
Amberieu, France (7482): temperature & dewpoint: 20.09.2018 17:00:00 - 26.09.2018 17:00:00 (CEST)Amberieu, France (7482): temperature 5cm: 20.09.2018 17:00:00 - 26.09.2018 17:00:00 (CEST)Amberieu, France (7482): temperature -20cm & temperature -100cm: 20.09.2018 17:00:00 - 26.09.2018 17:00:00 (CEST)Amberieu, France (7482): wind speed & gusts: 20.09.2018 17:00:00 - 26.09.2018 17:00:00 (CEST)Amberieu, France (7482): wind direction: 20.09.2018 17:00:00 - 26.09.2018 17:00:00 (CEST)Amberieu, France (7482): reduced air pressure: 20.09.2018 17:00:00 - 26.09.2018 17:00:00 (CEST)Amberieu, France (7482): visibility: 20.09.2018 17:00:00 - 26.09.2018 17:00:00 (CEST)Amberieu, France (7482): sunshine duration: 20.09.2018 17:00:00 - 26.09.2018 17:00:00 (CEST)Amberieu, France (7482): precipitation: 20.09.2018 17:00:00 - 26.09.2018 17:00:00 (CEST)
Date & Time tt [°C] td [°C] tt 5cm [°C] tt -20cm [°C] tt -100cm [°C] ff [km/h] ff [kn] fx [km/h] fx [kn] dd ppp [hPa] vv [km] sd [min] rr [mm]
26.09.2018 17:00:00 25,2 8,6 32,4 18,9 19,8 7 4 15 8 SW 1030,5 20 60 0,0
26.09.2018 16:00:00 25,1 9,4 32,1 18,9 19,8 7 4 19 11 SW 1030,8 20 60 0,0
26.09.2018 15:00:00 24,5 8,8 31,2 18,9 19,9 8 5 24 13 SSW 1031,6 20 60 0,0
26.09.2018 14:00:00 23,2 8,1 29,9 19,0 19,9 8 5 26 14 SSW 1032,4 20 60 0,0
26.09.2018 13:00:00 22,0 8,1 27,7 19,0 19,9 12 6 28 15 S 1033,2 20 60 0,0
26.09.2018 12:00:00 19,2 7,3 24,0 19,1 19,9 4 2 10 5 WSW 1033,9 20 60 0,0
26.09.2018 11:00:00 15,6 6,6 20,4 19,1 19,9 3 2 10 5 NW 1034,6 20 60 0,0
26.09.2018 10:00:00 11,6 7,1 13,5 19,2 19,9 4 2 6 3 N 1034,6 20 60 0,0
26.09.2018 09:00:00 7,6 6,4 3,9 19,3 19,9 4 2 9 5 NNE 1034,8 20 57 0,0
26.09.2018 08:00:00 4,5 3,9 0,4 19,3 19,9 6 3 9 5 NE 1034,2 20 0 0,0
26.09.2018 07:00:00 3,3 2,6 0,9 19,3 19,9 4 2 9 5 NE 1034,1 20 0 0,0
26.09.2018 06:00:00 4,8 4,1 1,3 19,4 19,9 3 1 8 4 ESE 1033,7 20 0 0,0
26.09.2018 05:00:00 4,6 3,9 1,4 19,4 19,9 5 3 6 4 NNE 1033,4 20 0 0,0
26.09.2018 04:00:00 4,9 4,0 2,0 19,5 19,9 4 2 9 5 NNE 1033,5 20 0 0,0
26.09.2018 03:00:00 5,1 4,1 1,6 19,5 19,9 5 3 7 4 N 1033,3 20 0 0,0
26.09.2018 02:00:00 6,9 5,2 2,8 19,5 19,9 4 2 7 4 SE 1033,0 20 0 0,0
26.09.2018 01:00:00 7,9 5,4 4,0 19,5 19,9 3 2 8 5 NE 1032,7 20 0 0,0
26.09.2018 00:00:00 7,8 5,4 4,0 19,5 20,0 6 3 10 5 NE 1032,2 20 0 0,0
25.09.2018 23:00:00 9,0 5,4 5,2 19,5 19,9 2 1 8 4 E 1031,8 20 0 0,0
25.09.2018 22:00:00 10,3 5,7 5,2 19,5 20,0 3 2 5 3 SE 1031,2 20 0 0,0
25.09.2018 21:00:00 12,3 5,2 6,1 19,5 20,0 2 1 11 6 NE 1031,1 20 0 0,0
25.09.2018 20:00:00 15,0 4,7 11,1 19,5 20,0 6 3 18 10 N 1030,3 20 8 0,0
25.09.2018 19:00:00 17,8 4,7 16,9 19,5 20,0 14 8 26 14 NNW 1029,8 20 60 0,0
25.09.2018 18:00:00 19,3 4,6 21,5 19,6 20,0 17 9 26 14 NNW 1029,5 20 60 0,0
25.09.2018 17:00:00 19,7 4,2 27,2 19,6 20,0 13 7 27 15 NNW 1029,7 20 60 0,0
25.09.2018 16:00:00 19,1 4,1 27,5 19,6 20,0 15 8 27 14 NNW 1030,2 20 60 0,0
25.09.2018 15:00:00 18,3 4,5 26,8 19,7 20,0 10 5 23 12 N 1030,9 20 60 0,0
25.09.2018 14:00:00 16,9 4,2 24,6 19,7 20,0 5 3 14 8 N 1031,6 20 60 0,0
25.09.2018 13:00:00 15,8 5,1 21,6 19,8 20,0 3 2 11 6 NW 1032,0 20 60 0,0
25.09.2018 12:00:00 13,4 4,8 19,5 19,9 20,0 4 2 13 7 WSW 1032,7 20 60 0,0
25.09.2018 11:00:00 11,4 4,6 15,4 20,0 20,0 5 3 11 6 SSW 1033,0 20 60 0,0
25.09.2018 10:00:00 9,1 4,5 11,7 20,0 20,0 3 2 8 4 SW 1033,0 20 60 0,0
25.09.2018 09:00:00 6,8 3,9 2,1 20,1 20,0 0 0 6 4 N 1032,7 20 56 0,0
25.09.2018 08:00:00 4,7 3,2 -0,4 20,1 20,0 4 2 6 3 ESE 1032,4 20 0 0,0
25.09.2018 07:00:00 4,4 3,1 -0,4 20,2 20,0 0 0 6 3 N 1032,2 20 0 0,0
25.09.2018 06:00:00 4,1 3,2 0,1 20,3 20,0 4 2 9 5 ESE 1031,9 20 0 0,0
25.09.2018 05:00:00 4,8 3,1 0,3 20,3 20,0 4 2 10 5 NE 1032,1 20 0 0,0
25.09.2018 04:00:00 4,6 2,9 0,4 20,4 20,0 5 3 10 5 NNE 1032,0 20 0 0,0
25.09.2018 03:00:00 6,5 3,5 2,7 20,4 20,0 6 3 10 5 NE 1031,7 20 0 0,0
25.09.2018 02:00:00 7,2 3,1 4,2 20,5 20,0 7 4 13 7 N 1031,5 20 0 0,0
25.09.2018 01:00:00 7,4 3,1 3,6 20,5 20,0 8 4 16 9 N 1031,2 20 0 0,0
25.09.2018 00:00:00 9,9 3,4 8,7 20,5 20,0 14 8 26 14 N 1030,5 20 0 0,0
24.09.2018 23:00:00 10,7 3,5 9,6 20,6 20,0 19 11 29 15 N 1030,4 20 0 0,0
24.09.2018 22:00:00 11,8 3,3 10,4 20,6 20,0 15 8 35 19 N 1030,2 20 0 0,0
24.09.2018 21:00:00 12,9 3,3 11,9 20,6 20,0 21 12 42 23 N 1029,7 20 0 0,0
24.09.2018 20:00:00 14,5 3,6 13,6 20,6 20,0 27 15 54 29 N 1029,0 20 10 0,0
24.09.2018 19:00:00 16,0 4,1 15,6 20,7 20,0 32 17 62 33 N 1028,0 20 60 0,0
24.09.2018 18:00:00 17,4 4,3 19,2 20,7 20,0 37 20 61 33 N 1027,5 20 60 0,0
24.09.2018 17:00:00 18,3 5,5 22,5 20,7 20,0 37 20 56 31 N 1027,4 20 60 0,0
24.09.2018 16:00:00 18,4 5,9 24,0 20,8 20,0 35 19 54 29 N 1027,3 20 60 0,0
24.09.2018 15:00:00 17,5 6,7 19,5 20,8 20,0 34 18 51 28 N 1027,7 20 34 0,0
24.09.2018 14:00:00 16,8 8,0 16,1 20,8 20,0 33 18 53 28 NNW 1028,1 20 23 0,0
24.09.2018 13:00:00 13,9 8,1 16,2 20,9 20,0 30 16 49 26 NNW 1029,1 20 11 0,0
24.09.2018 12:00:00 14,2 8,6 15,4 20,9 20,0 29 16 44 24 NNW 1029,1 20 28 0,0
24.09.2018 11:00:00 13,1 9,0 12,9 20,9 20,0 27 15 40 22 NNW 1029,3 20 37 0,0
24.09.2018 10:00:00 11,6 8,8 10,4 21,0 20,0 24 13 37 20 N 1029,3 20 4 0,0
24.09.2018 09:00:00 9,9 8,5 9,8 21,0 20,0 19 10 33 18 N 1029,2 20 0 0,0
24.09.2018 08:00:00 10,0 8,9 9,6 21,0 20,0 23 12 39 21 NNW 1028,6 20 0 0,0
24.09.2018 07:00:00 10,2 9,1 9,7 21,0 20,0 24 13 38 20 N 1028,0 20 0 0,0
24.09.2018 06:00:00 11,1 9,5 10,8 21,0 20,0 25 13 38 21 N 1027,8 20 0 0,0
24.09.2018 05:00:00 11,9 10,8 11,3 21,0 20,0 16 9 29 16 N 1027,1 20 0 0,0
24.09.2018 04:00:00 12,5 11,4 12,0 21,0 20,0 14 8 21 11 N 1026,5 20 0 0,0
24.09.2018 03:00:00 12,2 11,4 11,4 21,0 20,0 11 6 26 14 N 1026,3 20 0 0,0
24.09.2018 02:00:00 12,3 11,0 11,7 20,9 20,0 14 8 39 21 N 1025,5 20 0 0,0
24.09.2018 01:00:00 12,6 11,3 12,0 20,9 20,0 19 10 50 27 N 1024,5 20 0 1,2
24.09.2018 00:00:00 13,9 13,1 13,7 20,9 20,0 24 13 57 31 N 1023,9 4,3 0 3,4
23.09.2018 23:00:00 15,5 13,7 14,9 20,8 20,0 35 19 74 40 N 1022,4 15 0 0,0
23.09.2018 22:00:00 23,7 14,4 22,0 20,8 20,0 5 3 11 6 SSW 1018,8 20 0 0,0
23.09.2018 21:00:00 24,1 15,0 22,5 20,7 20,0 2 1 25 13 SSW 1018,5 20 0 0,0
23.09.2018 20:00:00 25,3 15,3 24,9 20,7 20,0 14 7 37 20 NW 1017,8 20 0 0,0
23.09.2018 19:00:00 27,2 14,2 27,1 20,6 20,0 11 6 18 10 WSW 1016,8 20 0 0,0
23.09.2018 18:00:00 28,7 13,8 30,0 20,6 20,0 9 5 22 12 S 1016,2 20 16 0,0
23.09.2018 17:00:00 30,0 13,7 32,6 20,6 20,0 10 5 24 13 SSW 1016,3 20 41 0,0
23.09.2018 16:00:00 29,6 13,4 34,8 20,6 20,0 12 6 26 14 SW 1017,1 20 60 0,0
23.09.2018 15:00:00 28,9 13,6 33,2 20,6 20,0 9 5 22 12 SW 1017,8 20 47 0,0
23.09.2018 14:00:00 27,5 14,2 35,8 20,6 20,0 5 3 25 14 WSW 1019,1 20 60 0,0
23.09.2018 13:00:00 27,0 14,7 31,7 20,6 20,0 12 6 24 13 W 1019,8 20 49 0,0
23.09.2018 12:00:00 26,1 14,2 31,7 20,6 20,0 7 4 24 13 W 1020,6 20 48 0,0
23.09.2018 11:00:00 24,8 11,7 23,5 20,7 20,0 3 2 11 6 SSE 1021,2 20 15 0,0
23.09.2018 10:00:00 20,9 9,8 20,9 20,7 20,0 7 4 15 8 S 1021,6 20 0 0,0
23.09.2018 09:00:00 19,1 10,6 18,5 20,7 20,0 3 2 7 4 SW 1021,7 20 0 0,0
23.09.2018 08:00:00 17,9 9,5 17,2 20,7 20,1 2 1 6 3 SSE 1021,6 20 0 0,0
23.09.2018 07:00:00 17,4 9,3 17,3 20,7 20,0 3 2 7 4 N 1021,6 20 0 0,0
23.09.2018 06:00:00 17,6 8,7 17,6 20,7 20,0 0 0 7 4 N 1021,7 20 0 0,0
23.09.2018 05:00:00 18,2 7,9 17,9 20,7 20,1 4 2 11 6 SSW 1022,1 20 0 0,0
23.09.2018 04:00:00 18,8 6,6 18,0 20,8 20,1 5 3 12 6 SE 1022,4 20 0 0,0
23.09.2018 03:00:00 17,8 6,9 17,6 20,7 20,0 4 2 10 5 S 1023,2 20 0 0,0
23.09.2018 02:00:00 17,8 7,8 17,5 20,7 20,1 5 3 8 4 SSW 1023,4 20 0 0,0
23.09.2018 01:00:00 17,5 7,2 16,8 20,7 20,1 0 0 8 5 N 1023,5 20 0 0,0
23.09.2018 00:00:00 17,2 8,3 16,8 20,7 20,0 5 3 10 5 SSW 1023,2 20 0 0,0
22.09.2018 23:00:00 18,9 5,7 17,7 20,7 20,1 6 3 14 7 SE 1022,8 20 0 0,0
22.09.2018 22:00:00 18,3 6,5 16,5 20,7 20,1 4 2 14 7 SSE 1022,5 20 0 0,0
22.09.2018 21:00:00 18,9 6,4 17,9 20,7 20,1 6 3 11 6 SE 1022,0 20 0 0,0
22.09.2018 20:00:00 19,7 5,0 17,8 20,7 20,0 5 3 6 4 NE 1021,8 20 13 0,0
22.09.2018 19:00:00 22,0 4,5 21,5 20,7 20,1 3 1 12 6 WSW 1021,3 20 38 0,0
22.09.2018 18:00:00 22,6 4,6 25,7 20,6 20,0 5 3 12 6 WNW 1021,4 20 46 0,0
22.09.2018 17:00:00 22,6 5,5 27,5 20,7 20,1 4 2 16 9 W 1021,6 20 50 0,0
22.09.2018 16:00:00 22,1 6,3 28,8 20,7 20,0 8 4 20 11 NNW 1022,2 20 55 0,0
22.09.2018 15:00:00 21,2 4,3 29,1 20,7 20,0 6 3 18 10 NNW 1022,5 20 60 0,0
22.09.2018 14:00:00 20,1 7,1 27,6 20,7 20,0 3 2 14 8 S 1023,2 20 60 0,0
22.09.2018 13:00:00 17,7 9,6 22,4 20,8 20,0 10 6 23 12 NE 1024,1 20 50 0,0
22.09.2018 12:00:00 16,6 9,8 21,6 20,8 20,0 5 3 19 11 NNE 1025,0 20 57 0,0
22.09.2018 11:00:00 14,1 10,3 16,9 20,9 20,0 4 2 11 6 N 1025,3 20 36 0,0
22.09.2018 10:00:00 12,5 10,6 13,5 20,9 20,0 6 3 14 7 N 1025,5 20 17 0,0
22.09.2018 09:00:00 11,1 10,0 8,0 21,0 20,1 8 4 11 6 N 1025,3 20 55 0,0
22.09.2018 08:00:00 8,1 7,8 4,7 21,0 20,0 6 3 8 5 NNE 1025,8 20 7 0,0
22.09.2018 07:00:00 8,2 7,8 4,9 21,1 20,0 5 3 10 5 NE 1025,3 20 0 0,0
22.09.2018 06:00:00 8,8 8,3 5,6 21,1 20,0 7 4 10 6 NE 1025,1 20 0 0,0
22.09.2018 05:00:00 9,3 8,5 7,0 21,1 20,0 5 3 12 6 NNE 1025,1 20 0 0,0
22.09.2018 04:00:00 9,7 9,1 8,5 21,1 20,0 7 4 10 5 N 1025,8 20 0 0,0
22.09.2018 03:00:00 9,6 9,1 7,2 21,1 20,0 6 3 8 4 NNE 1025,1 20 0 0,0
22.09.2018 02:00:00 9,6 9,0 7,8 21,2 20,1 5 3 8 4 NNE 1025,3 20 0 0,0
22.09.2018 01:00:00 9,9 9,3 7,7 21,2 20,0 6 3 11 6 NNE 1025,4 20 0 0,0
22.09.2018 00:00:00 10,5 9,4 8,4 21,1 20,0 8 4 9 5 NNE 1025,1 20 0 0,0
21.09.2018 23:00:00 11,7 10,3 10,2 21,1 20,0 4 2 12 7 ENE 1024,3 20 0 0,0
21.09.2018 22:00:00 12,5 10,9 11,7 21,1 20,0 8 4 18 10 N 1023,7 20 0 0,2
21.09.2018 21:00:00 13,1 10,1 12,1 21,1 20,0 14 8 27 15 N 1023,9 15 0 0,0
21.09.2018 20:00:00 13,9 9,7 12,0 21,1 20,0 16 8 42 23 N 1022,9 20 0 0,2
21.09.2018 19:00:00 16,4 12,7 16,1 21,1 20,0 18 10 50 27 N 1021,1 20 0 0,0
21.09.2018 18:00:00 19,8 13,9 19,8 21,0 20,0 32 17 52 28 NNW 1018,9 20 0 0,0
21.09.2018 17:00:00 26,3 7,3 26,5 21,0 20,0 18 10 33 18 WNW 1015,7 20 0 0,0
21.09.2018 16:00:00 27,8 11,8 28,5 21,1 20,0 12 6 29 16 WSW 1014,7 20 1 0,0
21.09.2018 15:00:00 29,7 12,6 29,5 21,1 20,0 15 8 26 14 W 1014,2 20 5 0,0
21.09.2018 14:00:00 28,1 12,4 29,5 21,1 20,0 17 9 33 18 SW 1014,5 20 11 0,0
21.09.2018 13:00:00 29,4 14,0 29,6 21,1 20,0 11 6 30 16 SSE 1014,5 20 43 0,0
21.09.2018 12:00:00 26,3 13,8 27,2 21,2 20,0 17 9 36 19 S 1015,3 20 13 0,0
21.09.2018 11:00:00 25,9 13,7 26,2 21,2 20,0 16 9 35 19 S 1015,4 20 20 0,0
21.09.2018 10:00:00 25,5 14,0 20,4 21,2 20,0 10 5 23 13 S 1015,4 20 43 0,0
21.09.2018 09:00:00 20,2 13,9 19,7 21,2 20,0 9 5 21 11 SSW 1015,4 20 46 0,0
21.09.2018 08:00:00 19,7 13,4 17,5 21,3 20,0 11 6 22 12 S 1015,1 20 11 0,0
21.09.2018 07:00:00 18,9 13,3 14,3 21,2 20,0 13 7 22 12 S 1015,0 6 0 0,0
21.09.2018 06:00:00 17,7 12,8 14,6 21,3 20,0 5 3 14 8 S 1015,1 20 0 0,0
21.09.2018 05:00:00 17,8 12,7 15,2 21,2 20,0 4 2 16 9 SSE 1015,2 20 0 0,0
21.09.2018 04:00:00 17,7 12,6 15,4 21,3 20,0 6 3 13 7 S 1015,7 20 0 0,0
21.09.2018 03:00:00 17,5 12,6 13,8 21,3 20,0 6 3 15 8 SSE 1016,0 20 0 0,0
21.09.2018 02:00:00 19,0 13,0 16,8 21,3 20,0 6 4 13 7 SE 1015,8 20 0 0,0
21.09.2018 01:00:00 18,7 12,9 14,7 21,2 20,0 6 4 15 8 SE 1016,1 20 0 0,0
21.09.2018 00:00:00 19,9 13,1 15,0 21,2 20,0 5 3 16 8 SE 1016,2 20 0 0,0
20.09.2018 23:00:00 18,7 13,8 16,4 21,1 20,0 4 2 10 5 NE 1016,3 20 0 0,0
20.09.2018 22:00:00 19,2 13,4 16,9 21,1 20,0 5 3 9 5 NNE 1016,4 20 0 0,0
20.09.2018 21:00:00 23,1 13,0 19,9 21,1 20,0 8 4 13 7 ESE 1015,9 20 0 0,0
20.09.2018 20:00:00 24,5 12,8 20,1 21,0 20,0 5 3 8 4 E 1015,8 20 18 0,0
20.09.2018 19:00:00 28,9 12,3 27,6 21,0 20,0 6 3 13 7 WNW 1015,6 20 60 0,0
20.09.2018 18:00:00 30,1 13,0 32,3 20,9 20,0 10 5 16 9 NW 1015,6 20 60 0,0
20.09.2018 17:00:00 30,5 14,2 37,9 20,9 20,0 9 5 22 12 NW 1015,9 20 60 0,0

tt = temperature
td = dewpoint
tt 5cm = temperature 5cm
tt -20cm = temperature -20cm
tt -100cm = temperature -100cm
ff = wind speed
fx = gusts
dd = wind direction
ppp = reduced air pressure
vv = visibility
sd = sunshine duration
rr = precipitation

Next stations